sat.trackr.live / text

‹ back to catalog

ONEWEB-0217

NORAD 48245 · 2021-031AM

PAYLOAD ACTIVE UNKNOWN

§ Identity

Operator
Country
UK
Launch date
2021-04-25
Launch site
VOSTO
Launch vehicle
Mass (kg)
RCS (m²)

Purposes: comms

External: N2YO · Heavens-Above · Gunter

§ Orbital elements

Epoch: 2026-05-25T03:38:32.216928Z

Period
109.55 min
Inclination
87.8948°
Eccentricity
0.0001548
Mean motion
13.14501308 rev/d
Perigee alt
1,204.6 km
Apogee alt
1,207.0 km
Semi-major
7,583.9 km
B*
5.8092e-5
RAAN
294.2892°
Arg perigee
105.5371°
Mean anomaly
254.5930°
Rev number
24,515

§ Raw data

ONEWEB-02171 48245U 21031AM  26145.15176177  .00000034  00000+0  58092-4 0  99972 48245  87.8948 294.2892 0001548 105.5371 254.5930 13.14501308245156

JSON: /api/v1/satellites/48245 · /tle

For live sub-satellite position, see the globe view (requires WebGL).

§ Visibility from observer

Set your observer location to see the next 7 days of passes ≥ 10°. The values pass through the URL so the page stays shareable.

No JS? Fill the form by hand. The geolocation button needs JavaScript.